FIN8DA EFHK-LEMG

Flight info

Callsign FIN8DA
Flight time N/A
Altitude 34000
Route VALOX Y117 ROSAX DCT RITRA DCT PIMEX P739 DEREX DCT GORPI DCT FARCU DCT IBAGA DCT DKB N869 TEDGO/N0446F350 N869 NATOR DCT LUTIX DCT BENOT DCT NEMOS DCT NINTU DCT MEBAK DCT REPSI DCT LERGA DCT MINSO DCT NARAK DCT AGN DCT MAQAB DCT TIVLI DCT ELSAP DCT ZAR DCT EXEMU DCT PISUS DCT EDIMU DCT ADUXO DCT NUSGO DCT OBIBO DCT NASOS L27 BLN
Aircraft A321/M-SDE1E2E3FGHIJ1M1RWXYZ/LB1

Departure

Time 2026-04-23 20:08
Airport Helsinki Vantaa Airport (EFHK)

Arrival

Time N/A
Airport Málaga-Costa del Sol Airport (LEMG)
Time Latitude Longitude Altitude Speed Heading
2026-04-23 19:40 60.31978 24.96900 167 ft 0 kts 217°
2026-04-23 19:58 60.31981 24.96904 166 ft 2 kts 218°
2026-04-23 19:59 60.31995 24.96928 166 ft 3 kts 231°
2026-04-23 19:59 60.32005 24.96960 166 ft 3 kts 258°
2026-04-23 19:59 60.32006 24.96994 166 ft 3 kts 299°
2026-04-23 19:59 60.31996 24.97017 166 ft 1 kts 332°
2026-04-23 20:00 60.31995 24.97020 166 ft 0 kts 333°
2026-04-23 20:03 60.32008 24.97006 166 ft 6 kts 333°
2026-04-23 20:03 60.32076 24.96935 166 ft 16 kts 333°
2026-04-23 20:03 60.32156 24.96831 166 ft 14 kts 330°
2026-04-23 20:03 60.32238 24.96724 166 ft 14 kts 301°
2026-04-23 20:04 60.32209 24.96577 168 ft 12 kts 227°
2026-04-23 20:04 60.32139 24.96423 168 ft 18 kts 227°
2026-04-23 20:04 60.32039 24.96203 168 ft 24 kts 226°
2026-04-23 20:04 60.31922 24.95943 170 ft 26 kts 230°
2026-04-23 20:05 60.31837 24.95755 169 ft 27 kts 227°
2026-04-23 20:05 60.31662 24.95368 170 ft 28 kts 228°
2026-04-23 20:05 60.31528 24.95078 170 ft 28 kts 226°
2026-04-23 20:05 60.31390 24.94783 164 ft 30 kts 226°
2026-04-23 20:06 60.31248 24.94473 158 ft 29 kts 229°
2026-04-23 20:06 60.31117 24.94171 157 ft 29 kts 225°
2026-04-23 20:06 60.31043 24.93912 158 ft 19 kts 268°
2026-04-23 20:06 60.31113 24.93713 158 ft 19 kts 333°
2026-04-23 20:07 60.31188 24.93768 159 ft 0 kts 47°
2026-04-23 20:07 60.31189 24.93770 159 ft 1 kts 46°
2026-04-23 20:08 60.31342 24.94101 161 ft 75 kts 47°
2026-04-23 20:08 60.31870 24.95257 174 ft 147 kts 47°
2026-04-23 20:08 60.32654 24.96997 601 ft 169 kts 46°
2026-04-23 20:08 60.33442 24.98728 1591 ft 169 kts 44°
2026-04-23 20:09 60.34265 25.00543 2139 ft 181 kts 44°
2026-04-23 20:09 60.35165 25.02521 2277 ft 203 kts 44°
2026-04-23 20:09 60.36178 25.04744 2420 ft 226 kts 45°
2026-04-23 20:09 60.37287 25.07184 2704 ft 247 kts 45°
2026-04-23 20:10 60.38075 25.08930 3134 ft 252 kts 45°
2026-04-23 20:10 60.39250 25.12999 4069 ft 265 kts 79°
2026-04-23 20:10 60.39037 25.16750 4775 ft 276 kts 106°
2026-04-23 20:10 60.38312 25.20381 5517 ft 280 kts 112°
2026-04-23 20:11 60.37445 25.23937 6278 ft 283 kts 115°
2026-04-23 20:11 60.36533 25.27486 6968 ft 286 kts 114°
2026-04-23 20:11 60.35599 25.31022 7628 ft 291 kts 120°
2026-04-23 20:11 60.34264 25.34170 8279 ft 300 kts 137°
2026-04-23 20:12 60.32482 25.36448 8922 ft 307 kts 156°
2026-04-23 20:12 60.30406 25.37558 9559 ft 313 kts 176°
2026-04-23 20:12 60.28210 25.37623 10077 ft 320 kts 184°
2026-04-23 20:12 60.25943 25.36931 10220 ft 339 kts 199°
2026-04-23 20:13 60.23700 25.35128 10353 ft 355 kts 213°
2026-04-23 20:13 60.21651 25.32233 10594 ft 363 kts 227°
2026-04-23 20:13 60.19974 25.28515 11084 ft 364 kts 237°
2026-04-23 20:13 60.18382 25.24498 11639 ft 368 kts 237°
2026-04-23 20:14 60.16769 25.20450 12218 ft 373 kts 237°
2026-04-23 20:14 60.15134 25.16368 12787 ft 377 kts 238°
2026-04-23 20:14 60.13493 25.12283 13354 ft 381 kts 238°
2026-04-23 20:14 60.11816 25.08112 13899 ft 385 kts 238°
2026-04-23 20:15 60.10123 25.03904 14412 ft 389 kts 238°
2026-04-23 20:15 60.08410 24.99654 14938 ft 392 kts 238°
2026-04-23 20:15 60.06687 24.95378 15458 ft 396 kts 239°
2026-04-23 20:15 60.04973 24.91131 15977 ft 399 kts 239°
2026-04-23 20:16 60.03209 24.86775 16494 ft 403 kts 239°
2026-04-23 20:16 60.01432 24.82401 17015 ft 406 kts 239°
2026-04-23 20:16 59.99636 24.77996 17524 ft 410 kts 239°
2026-04-23 20:16 59.97823 24.73551 18038 ft 413 kts 239°
2026-04-23 20:17 59.96024 24.69140 18471 ft 417 kts 240°
2026-04-23 20:17 59.94180 24.64630 18884 ft 420 kts 240°
2026-04-23 20:17 59.92325 24.60098 19297 ft 424 kts 240°
2026-04-23 20:17 59.90450 24.55523 19721 ft 428 kts 240°
2026-04-23 20:18 59.89191 24.52459 20002 ft 431 kts 240°
2026-04-23 20:18 59.87281 24.47818 20414 ft 435 kts 240°
2026-04-23 20:18 59.85345 24.43134 20829 ft 438 kts 240°
2026-04-23 20:18 59.82758 24.36890 21346 ft 443 kts 240°
2026-04-23 20:19 59.81428 24.33683 21607 ft 446 kts 240°
2026-04-23 20:19 59.79467 24.28959 21980 ft 449 kts 240°
2026-04-23 20:19 59.77465 24.24150 22350 ft 453 kts 240°
2026-04-23 20:19 59.75445 24.19305 22712 ft 456 kts 240°
2026-04-23 20:20 59.73304 24.14561 23068 ft 468 kts 232°
2026-04-23 20:20 59.70745 24.10402 23408 ft 482 kts 223°
2026-04-23 20:20 59.68006 24.06552 23711 ft 485 kts 223°
2026-04-23 20:20 59.65280 24.02723 24010 ft 487 kts 223°
2026-04-23 20:21 59.62507 23.98830 24337 ft 490 kts 223°
2026-04-23 20:21 59.59724 23.94920 24643 ft 492 kts 223°
2026-04-23 20:21 59.56934 23.90995 24947 ft 494 kts 223°
2026-04-23 20:21 59.54118 23.87035 25256 ft 496 kts 223°
2026-04-23 20:22 59.51296 23.83072 25552 ft 498 kts 223°
2026-04-23 20:22 59.48527 23.78983 25856 ft 494 kts 229°
2026-04-23 20:22 59.46115 23.74365 26142 ft 485 kts 238°
2026-04-23 20:22 59.43940 23.69291 26439 ft 484 kts 240°
2026-04-23 20:23 59.41773 23.64190 26739 ft 486 kts 240°
2026-04-23 20:23 59.39587 23.59068 27032 ft 489 kts 240°
2026-04-23 20:23 59.37419 23.54015 27310 ft 491 kts 240°
2026-04-23 20:23 59.35199 23.48863 27591 ft 493 kts 239°
2026-04-23 20:24 59.32974 23.43729 27865 ft 495 kts 239°
2026-04-23 20:24 59.30739 23.38580 28137 ft 497 kts 239°
2026-04-23 20:24 59.28496 23.33417 28407 ft 499 kts 239°
2026-04-23 20:24 59.26240 23.28231 28684 ft 501 kts 239°
2026-04-23 20:25 59.23972 23.23019 28959 ft 503 kts 239°
2026-04-23 20:25 59.21726 23.17862 29228 ft 505 kts 239°
2026-04-23 20:25 59.19435 23.12619 29501 ft 507 kts 239°
2026-04-23 20:25 59.17138 23.07382 29876 ft 506 kts 239°
2026-04-23 20:26 59.14851 23.02180 30226 ft 505 kts 239°
2026-04-23 20:26 59.12560 22.96990 30546 ft 504 kts 239°
2026-04-23 20:26 59.10270 22.91825 30879 ft 503 kts 239°
2026-04-23 20:26 59.07976 22.86661 31208 ft 502 kts 238°
2026-04-23 20:27 59.05727 22.81600 31530 ft 501 kts 238°
2026-04-23 20:27 59.03448 22.76469 31854 ft 500 kts 238°
2026-04-23 20:27 59.01174 22.71351 32185 ft 499 kts 238°
2026-04-23 20:27 58.98903 22.66256 32507 ft 498 kts 238°
2026-04-23 20:28 58.96639 22.61191 32827 ft 497 kts 238°
2026-04-23 20:28 58.94397 22.56186 33147 ft 495 kts 238°
2026-04-23 20:28 58.92135 22.51155 33464 ft 494 kts 238°
2026-04-23 20:28 58.89876 22.46157 33780 ft 493 kts 238°
2026-04-23 20:29 58.87573 22.41180 33906 ft 495 kts 236°
2026-04-23 20:29 58.82695 22.31758 33929 ft 497 kts 231°
2026-04-23 20:30 58.77619 22.22749 33937 ft 497 kts 231°
2026-04-23 20:30 58.70041 22.09134 33947 ft 495 kts 232°
2026-04-23 20:31 58.65061 21.99955 33943 ft 494 kts 232°
2026-04-23 20:31 58.60117 21.90871 33938 ft 495 kts 232°
2026-04-23 20:32 58.55119 21.81811 33943 ft 495 kts 231°
2026-04-23 20:32 58.50107 21.72770 33945 ft 495 kts 231°
2026-04-23 20:33 58.45087 21.63746 33949 ft 495 kts 231°
2026-04-23 20:33 58.40099 21.54806 33962 ft 495 kts 231°
2026-04-23 20:34 58.35058 21.45831 33946 ft 496 kts 231°
2026-04-23 20:34 58.30003 21.36862 33955 ft 496 kts 231°
2026-04-23 20:35 58.24950 21.27909 33949 ft 496 kts 231°
2026-04-23 20:35 58.19918 21.19017 33956 ft 496 kts 231°
2026-04-23 20:36 58.15004 21.09829 33969 ft 495 kts 233°
2026-04-23 20:36 58.10219 21.00576 33969 ft 495 kts 233°
2026-04-23 20:37 58.05360 20.91309 33978 ft 496 kts 233°
2026-04-23 20:37 58.00445 20.82135 33976 ft 497 kts 232°
2026-04-23 20:38 57.95507 20.72982 33985 ft 497 kts 232°
2026-04-23 20:38 57.90582 20.63852 33995 ft 497 kts 232°
2026-04-23 20:39 57.85690 20.54791 33996 ft 497 kts 232°
2026-04-23 20:39 57.80746 20.45690 33998 ft 496 kts 232°
2026-04-23 20:40 57.75831 20.36680 34003 ft 496 kts 232°
2026-04-23 20:40 57.70896 20.27672 34008 ft 495 kts 232°
2026-04-23 20:41 57.65949 20.18675 34012 ft 495 kts 232°
2026-04-23 20:41 57.61049 20.09725 34015 ft 494 kts 232°
2026-04-23 20:42 57.56135 20.00747 34013 ft 494 kts 232°
2026-04-23 20:42 57.51212 19.91798 34018 ft 494 kts 232°
2026-04-23 20:43 57.46278 19.82887 34020 ft 493 kts 231°
2026-04-23 20:43 57.41378 19.74079 34027 ft 493 kts 231°
2026-04-23 20:44 57.36448 19.65248 34028 ft 492 kts 231°
2026-04-23 20:44 57.31510 19.56430 34027 ft 492 kts 231°
2026-04-23 20:45 57.26582 19.47656 34030 ft 491 kts 231°
2026-04-23 20:45 57.21680 19.38966 34028 ft 491 kts 231°
2026-04-23 20:46 57.16749 19.30257 34041 ft 491 kts 231°
2026-04-23 20:46 57.11803 19.21591 34043 ft 490 kts 231°
2026-04-23 20:47 57.06858 19.12930 34041 ft 490 kts 231°
2026-04-23 20:47 57.01952 19.04348 34044 ft 490 kts 230°
2026-04-23 20:48 56.96993 18.95747 34045 ft 490 kts 230°
2026-04-23 20:48 56.92022 18.87159 34050 ft 490 kts 230°
2026-04-23 20:49 56.87094 18.78644 34049 ft 490 kts 230°
2026-04-23 20:49 56.82124 18.70094 34053 ft 490 kts 230°
2026-04-23 20:50 56.77139 18.61571 34055 ft 490 kts 230°
2026-04-23 20:50 56.72187 18.53138 34060 ft 490 kts 230°
2026-04-23 20:51 56.67197 18.44672 34059 ft 490 kts 230°
2026-04-23 20:51 56.62234 18.36272 34060 ft 490 kts 230°
2026-04-23 20:52 56.57212 18.27801 34056 ft 490 kts 229°
2026-04-23 20:52 56.52237 18.19447 34055 ft 491 kts 229°
2026-04-23 20:53 56.47212 18.11047 34061 ft 491 kts 229°
2026-04-23 20:53 56.42181 18.02663 34059 ft 491 kts 229°
2026-04-23 20:54 56.37144 17.94299 34067 ft 492 kts 229°
2026-04-23 20:54 56.32124 17.86003 34081 ft 492 kts 229°
2026-04-23 20:55 56.27077 17.77687 34068 ft 492 kts 229°
2026-04-23 20:55 56.22013 17.69381 34072 ft 492 kts 229°
2026-04-23 20:56 56.16957 17.61100 34072 ft 492 kts 229°
2026-04-23 20:56 56.11915 17.52873 34075 ft 492 kts 229°
2026-04-23 20:57 56.06845 17.44657 34082 ft 491 kts 229°
2026-04-23 20:57 56.01777 17.36470 34083 ft 491 kts 229°
2026-04-23 20:58 55.96693 17.28284 34086 ft 490 kts 229°
2026-04-23 20:58 55.91630 17.20140 34081 ft 489 kts 229°
2026-04-23 20:59 55.86570 17.12036 34081 ft 489 kts 228°
2026-04-23 20:59 55.81523 17.03993 34087 ft 488 kts 228°
2026-04-23 21:00 55.76452 16.95939 34088 ft 488 kts 228°
2026-04-23 21:00 55.71383 16.87918 34088 ft 487 kts 228°
2026-04-23 21:01 55.66345 16.79984 34086 ft 487 kts 227°
2026-04-23 21:01 55.61271 16.72018 34089 ft 486 kts 227°
2026-04-23 21:02 55.56230 16.64125 34086 ft 486 kts 227°
2026-04-23 21:02 55.51159 16.56212 34079 ft 486 kts 227°
2026-04-23 21:03 55.46067 16.48300 34078 ft 485 kts 227°
2026-04-23 21:03 55.41022 16.40492 34077 ft 485 kts 227°
2026-04-23 21:04 55.35941 16.32657 34068 ft 485 kts 227°
2026-04-23 21:04 55.30863 16.24853 34077 ft 485 kts 227°
2026-04-23 21:05 55.25778 16.17064 34073 ft 485 kts 226°
2026-04-23 21:05 55.20717 16.09344 34085 ft 484 kts 226°
2026-04-23 21:06 55.15635 16.01604 34088 ft 484 kts 226°
2026-04-23 21:06 55.10551 15.93880 34087 ft 483 kts 226°
2026-04-23 21:07 55.05468 15.86196 34083 ft 483 kts 226°
2026-04-23 21:07 55.00379 15.78549 34077 ft 482 kts 226°
2026-04-23 21:08 54.95310 15.70968 34077 ft 482 kts 226°
2026-04-23 21:08 54.91077 15.64649 34082 ft 482 kts 226°
2026-04-23 21:09 54.85951 15.57114 34080 ft 482 kts 225°
2026-04-23 21:09 54.80786 15.49653 34079 ft 483 kts 225°
2026-04-23 21:10 54.75638 15.42259 34083 ft 483 kts 225°
2026-04-23 21:10 54.70450 15.34788 34092 ft 484 kts 225°
2026-04-23 21:11 54.65297 15.27375 34096 ft 484 kts 225°
2026-04-23 21:11 54.60098 15.19939 34098 ft 485 kts 225°
2026-04-23 21:12 54.54901 15.12541 34098 ft 485 kts 225°
2026-04-23 21:12 54.49719 15.05175 34091 ft 485 kts 225°
2026-04-23 21:13 54.44499 14.97778 34099 ft 486 kts 225°
2026-04-23 21:13 54.39264 14.90398 34109 ft 486 kts 224°
2026-04-23 21:14 54.34026 14.83033 34105 ft 486 kts 224°
2026-04-23 21:14 54.28817 14.75736 34113 ft 486 kts 224°
2026-04-23 21:15 54.23561 14.68405 34120 ft 485 kts 224°
2026-04-23 21:15 54.18363 14.61168 34141 ft 485 kts 224°
2026-04-23 21:16 54.13129 14.53897 34142 ft 484 kts 224°
2026-04-23 21:16 54.07888 14.46648 34139 ft 484 kts 224°
2026-04-23 21:17 54.02649 14.39433 34135 ft 483 kts 224°
2026-04-23 21:17 53.97443 14.32294 34130 ft 483 kts 223°
2026-04-23 21:18 53.92199 14.25124 34129 ft 482 kts 223°
2026-04-23 21:18 53.86670 14.18606 34130 ft 487 kts 214°
2026-04-23 21:19 53.80828 14.12901 34125 ft 487 kts 213°
2026-04-23 21:19 53.74952 14.07190 34130 ft 487 kts 213°
2026-04-23 21:20 53.69074 14.01487 34137 ft 486 kts 213°
2026-04-23 21:20 53.63240 13.95834 34149 ft 486 kts 213°
2026-04-23 21:21 53.57361 13.90168 34151 ft 486 kts 213°
2026-04-23 21:21 53.51480 13.84531 34153 ft 486 kts 213°
2026-04-23 21:22 53.45598 13.78894 34155 ft 486 kts 213°
2026-04-23 21:22 53.39745 13.73295 34147 ft 486 kts 213°
2026-04-23 21:23 53.33874 13.67693 34149 ft 485 kts 213°
2026-04-23 21:23 53.27989 13.62112 34153 ft 486 kts 213°
2026-04-23 21:24 53.22132 13.56584 34159 ft 486 kts 212°
2026-04-23 21:24 53.16240 13.51037 34160 ft 486 kts 212°
2026-04-23 21:25 53.10353 13.45499 34162 ft 485 kts 212°
2026-04-23 21:25 53.04494 13.39999 34163 ft 485 kts 212°
2026-04-23 21:26 52.98603 13.34501 34165 ft 485 kts 212°
2026-04-23 21:26 52.92739 13.29052 34162 ft 484 kts 212°
2026-04-23 21:27 52.86859 13.23587 34165 ft 484 kts 212°
2026-04-23 21:27 52.80969 13.18130 34169 ft 484 kts 212°
2026-04-23 21:28 52.75111 13.12738 34169 ft 484 kts 212°
2026-04-23 21:28 52.69222 13.07326 34170 ft 484 kts 212°
2026-04-23 21:29 52.63364 13.01960 34178 ft 484 kts 211°
2026-04-23 21:29 52.57482 12.96586 34181 ft 483 kts 211°
2026-04-23 21:30 52.51586 12.91207 34182 ft 483 kts 211°
2026-04-23 21:30 52.45728 12.85885 34185 ft 483 kts 211°
2026-04-23 21:31 52.39842 12.80555 34191 ft 483 kts 211°
2026-04-23 21:31 52.33947 12.75241 34198 ft 483 kts 211°
2026-04-23 21:32 52.28064 12.69960 34199 ft 483 kts 211°
2026-04-23 21:32 52.22200 12.64695 34207 ft 482 kts 211°
2026-04-23 21:33 52.16301 12.59426 34212 ft 482 kts 211°
2026-04-23 21:33 52.10448 12.54204 34204 ft 482 kts 211°
2026-04-23 21:34 52.04568 12.48964 34211 ft 481 kts 210°
2026-04-23 21:34 51.98681 12.43749 34216 ft 481 kts 210°
2026-04-23 21:35 51.92828 12.38585 34215 ft 480 kts 210°
2026-04-23 21:35 51.86956 12.33414 34217 ft 480 kts 210°
2026-04-23 21:36 51.78180 12.25707 34220 ft 479 kts 210°
2026-04-23 21:37 51.72298 12.20565 34229 ft 479 kts 210°
2026-04-23 21:37 51.66453 12.15475 34229 ft 478 kts 210°
2026-04-23 21:38 51.60624 12.10412 34233 ft 478 kts 209°
2026-04-23 21:38 51.54760 12.05337 34233 ft 478 kts 209°
2026-04-23 21:39 51.48887 12.00263 34236 ft 478 kts 209°
2026-04-23 21:39 51.43067 11.95237 34237 ft 478 kts 209°
2026-04-23 21:40 51.37200 11.90198 34242 ft 478 kts 209°
2026-04-23 21:40 51.31331 11.85182 34241 ft 477 kts 208°
2026-04-23 21:41 51.25467 11.80181 34242 ft 477 kts 208°
2026-04-23 21:41 51.19638 11.75217 34242 ft 477 kts 208°
2026-04-23 21:42 51.13777 11.70248 34247 ft 477 kts 208°
2026-04-23 21:42 51.07909 11.65278 34245 ft 477 kts 208°
2026-04-23 21:43 51.02091 11.60357 34244 ft 477 kts 208°
2026-04-23 21:43 50.96236 11.55427 34245 ft 477 kts 208°
2026-04-23 21:44 50.90362 11.50496 34243 ft 477 kts 208°
2026-04-23 21:44 50.84481 11.45573 34252 ft 477 kts 208°
2026-04-23 21:45 50.78597 11.40659 34237 ft 479 kts 208°
2026-04-23 21:45 50.72686 11.35727 34220 ft 481 kts 207°
2026-04-23 21:46 50.66789 11.30823 34231 ft 482 kts 207°
2026-04-23 21:46 50.60823 11.25897 34231 ft 482 kts 207°
2026-04-23 21:47 50.54902 11.21020 34247 ft 483 kts 207°
2026-04-23 21:47 50.48939 11.16114 34257 ft 483 kts 207°
2026-04-23 21:48 50.42995 11.11237 34262 ft 482 kts 207°
2026-04-23 21:48 50.37033 11.06369 34271 ft 482 kts 207°
2026-04-23 21:49 50.31071 11.01510 34278 ft 482 kts 207°
2026-04-23 21:49 50.25147 10.96689 34284 ft 482 kts 206°
2026-04-23 21:50 50.19191 10.91862 34285 ft 481 kts 206°
2026-04-23 21:50 50.13265 10.87076 34287 ft 481 kts 206°
2026-04-23 21:51 50.07317 10.82280 34287 ft 481 kts 206°
2026-04-23 21:51 50.01367 10.77482 34288 ft 481 kts 206°
2026-04-23 21:52 49.95418 10.72703 34288 ft 481 kts 206°
2026-04-23 21:52 49.89466 10.67956 34290 ft 480 kts 206°
2026-04-23 21:53 49.83518 10.63214 34287 ft 480 kts 206°
2026-04-23 21:53 49.77608 10.58523 34286 ft 480 kts 206°
2026-04-23 21:54 49.71498 10.54395 34286 ft 477 kts 197°
2026-04-23 21:54 49.65260 10.51036 34285 ft 477 kts 197°
2026-04-23 21:55 49.58980 10.47650 34285 ft 477 kts 197°
2026-04-23 21:55 49.52715 10.44273 34283 ft 477 kts 197°
2026-04-23 21:56 49.46447 10.40914 34286 ft 476 kts 197°
2026-04-23 21:56 49.40222 10.37595 34285 ft 476 kts 197°
2026-04-23 21:57 49.33964 10.34252 34289 ft 475 kts 197°
2026-04-23 21:57 49.28762 10.31490 34295 ft 475 kts 197°
2026-04-23 21:58 49.22510 10.28191 34298 ft 475 kts 197°
2026-04-23 21:58 49.16400 10.24312 34300 ft 478 kts 208°
2026-04-23 21:59 49.11241 10.17962 34295 ft 481 kts 227°
2026-04-23 21:59 49.07015 10.10001 34289 ft 482 kts 230°
2026-04-23 22:00 49.00703 9.98116 34288 ft 482 kts 229°
2026-04-23 22:00 48.96464 9.90189 34277 ft 482 kts 229°
2026-04-23 22:01 48.92229 9.82239 34270 ft 482 kts 229°
2026-04-23 22:01 48.88033 9.74356 34292 ft 483 kts 229°
2026-04-23 22:02 48.83786 9.66440 34285 ft 483 kts 229°
2026-04-23 22:02 48.79536 9.58552 34296 ft 483 kts 229°
2026-04-23 22:03 48.75280 9.50674 34299 ft 482 kts 228°
2026-04-23 22:03 48.71017 9.42810 34307 ft 482 kts 228°
2026-04-23 22:04 48.66787 9.35010 34296 ft 481 kts 228°
2026-04-23 22:04 48.62528 9.27175 34313 ft 481 kts 228°
2026-04-23 22:05 48.58434 9.19155 34302 ft 481 kts 232°
2026-04-23 22:05 48.54642 9.10893 34634 ft 481 kts 234°
2026-04-23 22:06 48.52756 9.06725 34916 ft 480 kts 233°
2026-04-23 22:06 48.50851 9.02579 35176 ft 479 kts 233°
2026-04-23 22:06 48.48929 8.98466 35277 ft 479 kts 232°
2026-04-23 22:06 48.47012 8.94426 35291 ft 478 kts 232°
2026-04-23 22:07 48.43106 8.86299 35285 ft 478 kts 232°
2026-04-23 22:07 48.39208 8.78188 35296 ft 477 kts 232°
2026-04-23 22:08 48.35328 8.70085 35291 ft 477 kts 232°
2026-04-23 22:08 48.31468 8.62041 35301 ft 477 kts 232°
2026-04-23 22:09 48.27575 8.53948 35303 ft 478 kts 232°
2026-04-23 22:09 48.23671 8.45855 35322 ft 478 kts 232°
2026-04-23 22:10 48.19770 8.37832 35318 ft 478 kts 232°
2026-04-23 22:10 48.15262 8.30633 35321 ft 472 kts 215°
2026-04-23 22:11 48.09817 8.25190 35317 ft 469 kts 210°
2026-04-23 22:11 48.04326 8.19898 35321 ft 470 kts 210°
2026-04-23 22:12 47.98831 8.14603 35316 ft 470 kts 210°
2026-04-23 22:12 47.93374 8.09358 35317 ft 469 kts 210°
2026-04-23 22:13 47.87871 8.04095 35312 ft 470 kts 210°
2026-04-23 22:13 47.82358 7.98841 35317 ft 470 kts 210°
2026-04-23 22:14 47.76882 7.93639 35305 ft 470 kts 210°
2026-04-23 22:14 47.71360 7.88405 35297 ft 470 kts 210°
2026-04-23 22:15 47.65834 7.83183 35304 ft 470 kts 210°
2026-04-23 22:15 47.60300 7.77958 35301 ft 471 kts 210°
2026-04-23 22:16 47.54769 7.72739 35300 ft 471 kts 210°
2026-04-23 22:16 47.52037 7.70170 35296 ft 471 kts 210°
2026-04-23 22:17 47.46697 7.65151 35300 ft 471 kts 210°
2026-04-23 22:17 47.41166 7.59980 35302 ft 470 kts 210°
2026-04-23 22:18 47.35628 7.54808 35304 ft 470 kts 210°
2026-04-23 22:18 47.30119 7.49678 35303 ft 470 kts 210°
2026-04-23 22:19 47.24577 7.44535 35298 ft 470 kts 210°
2026-04-23 22:19 47.19047 7.39388 35297 ft 471 kts 213°
2026-04-23 22:20 47.14220 7.32875 35293 ft 473 kts 231°
2026-04-23 22:20 47.10152 7.25340 35297 ft 473 kts 231°
2026-04-23 22:21 47.06055 7.17778 35288 ft 473 kts 231°
2026-04-23 22:21 47.01943 7.10243 35291 ft 472 kts 231°
2026-04-23 22:22 46.97825 7.02730 35268 ft 472 kts 231°
2026-04-23 22:22 46.93733 6.95277 35271 ft 472 kts 231°
2026-04-23 22:23 46.89616 6.87789 35263 ft 472 kts 231°
2026-04-23 22:23 46.85491 6.80328 35269 ft 471 kts 231°
2026-04-23 22:24 46.81362 6.72894 35267 ft 471 kts 231°
2026-04-23 22:24 46.77274 6.65527 35272 ft 470 kts 231°
2026-04-23 22:25 46.73153 6.58116 35262 ft 469 kts 231°
2026-04-23 22:25 46.69052 6.50768 35265 ft 468 kts 232°
2026-04-23 22:26 46.64942 6.43410 35258 ft 468 kts 232°
2026-04-23 22:26 46.60809 6.36064 35266 ft 467 kts 232°
2026-04-23 22:27 46.56721 6.28809 35259 ft 466 kts 232°
2026-04-23 22:27 46.52605 6.21530 35267 ft 465 kts 232°
2026-04-23 22:28 46.48502 6.14274 35267 ft 464 kts 232°
2026-04-23 22:28 46.44394 6.07041 35272 ft 463 kts 232°
2026-04-23 22:29 46.40318 5.99868 35270 ft 463 kts 233°
2026-04-23 22:29 46.36224 5.92676 35272 ft 462 kts 233°
2026-04-23 22:30 46.32142 5.85549 35267 ft 461 kts 232°
2026-04-23 22:30 46.28043 5.78412 35270 ft 461 kts 233°
2026-04-23 22:31 46.23939 5.71264 35265 ft 460 kts 233°
2026-04-23 22:31 46.19843 5.64144 35262 ft 460 kts 233°
2026-04-23 22:32 46.15740 5.57060 35254 ft 459 kts 233°
2026-04-23 22:32 46.12036 5.49689 35251 ft 456 kts 238°
2026-04-23 22:33 46.08424 5.42148 35243 ft 456 kts 238°
2026-04-23 22:33 46.04818 5.34641 35243 ft 455 kts 238°
2026-04-23 22:34 46.01220 5.27182 35235 ft 455 kts 238°
2026-04-23 22:34 45.97605 5.19712 35231 ft 455 kts 238°
2026-04-23 22:35 45.93983 5.12245 35222 ft 454 kts 238°
2026-04-23 22:35 45.90361 5.04806 35225 ft 454 kts 239°
2026-04-23 22:36 45.86753 4.97378 35219 ft 453 kts 239°
2026-04-23 22:36 45.83134 4.89967 35217 ft 452 kts 238°
2026-04-23 22:37 45.79541 4.82633 35214 ft 452 kts 239°
2026-04-23 22:37 45.75924 4.75272 35216 ft 451 kts 239°
2026-04-23 22:38 45.72306 4.67934 35215 ft 451 kts 239°
2026-04-23 22:38 45.68691 4.60611 35224 ft 450 kts 239°
2026-04-23 22:39 45.65082 4.53299 35238 ft 450 kts 239°
2026-04-23 22:39 45.61467 4.46014 35241 ft 449 kts 239°
2026-04-23 22:40 45.57871 4.38780 35236 ft 449 kts 239°
2026-04-23 22:41 45.52435 4.27892 35231 ft 448 kts 239°
2026-04-23 22:41 45.48813 4.20667 35238 ft 447 kts 239°
2026-04-23 22:42 45.45191 4.13454 35240 ft 447 kts 240°
2026-04-23 22:42 45.41595 4.06305 35230 ft 447 kts 240°
2026-04-23 22:43 45.37961 3.99117 35240 ft 446 kts 240°
2026-04-23 22:43 45.34333 3.91959 35237 ft 446 kts 240°
2026-04-23 22:44 45.30704 3.84801 35178 ft 447 kts 238°
2026-04-23 22:44 45.27056 3.77630 35212 ft 452 kts 238°
2026-04-23 22:45 45.23383 3.70362 35221 ft 452 kts 239°
2026-04-23 22:45 45.19780 3.63019 35223 ft 452 kts 239°
2026-04-23 22:46 45.16200 3.55678 35228 ft 452 kts 239°
2026-04-23 22:46 45.12599 3.48365 35231 ft 452 kts 239°
2026-04-23 22:47 45.09606 3.42335 35232 ft 452 kts 239°
2026-04-23 22:47 45.05978 3.35047 35232 ft 452 kts 239°
2026-04-23 22:48 45.02337 3.27766 35232 ft 452 kts 239°
2026-04-23 22:48 44.98735 3.20562 35231 ft 452 kts 239°
2026-04-23 22:49 44.95104 3.13309 35233 ft 451 kts 239°
2026-04-23 22:49 44.91474 3.06074 35232 ft 451 kts 239°
2026-04-23 22:50 44.87829 2.98845 35230 ft 451 kts 239°
2026-04-23 22:50 44.84194 2.91629 35224 ft 451 kts 239°
2026-04-23 22:51 44.80738 2.84278 35222 ft 449 kts 242°
2026-04-23 22:51 44.77422 2.76887 35216 ft 449 kts 242°
2026-04-23 22:52 44.74058 2.69478 35210 ft 449 kts 241°
2026-04-23 22:52 44.70649 2.62120 35206 ft 449 kts 240°
2026-04-23 22:53 44.67214 2.54781 35200 ft 449 kts 240°
2026-04-23 22:53 44.63790 2.47456 35202 ft 449 kts 240°
2026-04-23 22:54 44.60385 2.40161 35199 ft 448 kts 240°
2026-04-23 22:54 44.56960 2.32818 35197 ft 448 kts 240°
2026-04-23 22:55 44.53537 2.25510 35195 ft 448 kts 240°
2026-04-23 22:55 44.50105 2.18212 35189 ft 448 kts 240°
2026-04-23 22:56 44.46688 2.10981 35186 ft 448 kts 240°
2026-04-23 22:56 44.43240 2.03709 35172 ft 448 kts 240°
2026-04-23 22:57 44.39799 1.96435 35172 ft 448 kts 240°
2026-04-23 22:57 44.36348 1.89170 35172 ft 448 kts 240°
2026-04-23 22:58 44.32902 1.81945 35163 ft 448 kts 240°
2026-04-23 22:58 44.29428 1.74696 35154 ft 448 kts 239°
2026-04-23 22:59 44.26021 1.67405 35147 ft 448 kts 241°
2026-04-23 22:59 44.22691 1.60055 35147 ft 448 kts 241°
2026-04-23 23:00 44.19369 1.52765 35146 ft 448 kts 240°
2026-04-23 23:00 44.15993 1.45443 35148 ft 448 kts 240°
2026-04-23 23:01 44.12613 1.38146 35130 ft 448 kts 240°
2026-04-23 23:01 44.09216 1.30858 35134 ft 448 kts 240°
2026-04-23 23:02 44.05840 1.23627 35139 ft 448 kts 240°
2026-04-23 23:02 44.02442 1.16346 35134 ft 448 kts 240°
2026-04-23 23:03 43.99047 1.09079 35134 ft 448 kts 240°
2026-04-23 23:03 43.95641 1.01813 35130 ft 448 kts 240°
2026-04-23 23:04 43.92242 0.94600 35131 ft 448 kts 239°
2026-04-23 23:04 43.88700 0.87493 35122 ft 451 kts 232°
2026-04-23 23:05 43.84121 0.81478 35121 ft 454 kts 224°
2026-04-23 23:05 43.79405 0.75665 35120 ft 454 kts 224°
2026-04-23 23:06 43.74721 0.69892 35125 ft 453 kts 224°
2026-04-23 23:06 43.70005 0.64106 35122 ft 453 kts 224°
2026-04-23 23:07 43.65296 0.58321 35119 ft 452 kts 224°
2026-04-23 23:07 43.60591 0.52545 35114 ft 452 kts 224°
2026-04-23 23:08 43.55888 0.46794 35114 ft 451 kts 224°
2026-04-23 23:08 43.51218 0.41096 35111 ft 450 kts 224°
2026-04-23 23:09 43.46528 0.35378 35109 ft 450 kts 224°
2026-04-23 23:09 43.41834 0.29684 35102 ft 449 kts 224°
2026-04-23 23:10 43.37143 0.24011 35110 ft 448 kts 224°
2026-04-23 23:10 43.32459 0.18342 35107 ft 448 kts 224°
2026-04-23 23:11 43.27818 0.12733 35107 ft 447 kts 224°
2026-04-23 23:11 43.23135 0.07102 35104 ft 446 kts 223°
2026-04-23 23:12 43.18459 0.01489 35101 ft 446 kts 223°
2026-04-23 23:12 43.13792 -0.04099 35101 ft 445 kts 223°
2026-04-23 23:13 43.09152 -0.09658 35111 ft 445 kts 223°
2026-04-23 23:13 43.04495 -0.15219 35105 ft 444 kts 223°
2026-04-23 23:14 42.99825 -0.20779 35115 ft 444 kts 223°
2026-04-23 23:14 42.95161 -0.26324 35128 ft 444 kts 223°
2026-04-23 23:15 42.90528 -0.31824 35130 ft 444 kts 223°
2026-04-23 23:15 42.85864 -0.37343 35152 ft 443 kts 223°
2026-04-23 23:16 42.81102 -0.42693 35151 ft 444 kts 215°
2026-04-23 23:16 42.75499 -0.46310 35167 ft 447 kts 202°
2026-04-23 23:17 42.69722 -0.49325 35170 ft 447 kts 203°
2026-04-23 23:17 42.63917 -0.52394 35168 ft 447 kts 203°
2026-04-23 23:18 42.58114 -0.55464 35177 ft 447 kts 203°
2026-04-23 23:18 42.52355 -0.58488 35185 ft 447 kts 202°
2026-04-23 23:19 42.46546 -0.61508 35188 ft 447 kts 202°
2026-04-23 23:19 42.40726 -0.64539 35186 ft 446 kts 202°
2026-04-23 23:20 42.34960 -0.67536 35186 ft 446 kts 202°
2026-04-23 23:20 42.29172 -0.70541 35189 ft 445 kts 202°
2026-04-23 23:21 42.23388 -0.73537 35187 ft 445 kts 202°
2026-04-23 23:21 42.17616 -0.76527 35181 ft 444 kts 202°
2026-04-23 23:22 42.11847 -0.79517 35177 ft 444 kts 202°
2026-04-23 23:22 42.06074 -0.82494 35171 ft 443 kts 202°
2026-04-23 23:23 42.00338 -0.85440 35171 ft 443 kts 202°
2026-04-23 23:23 41.94570 -0.88390 35167 ft 443 kts 202°
2026-04-23 23:24 41.88808 -0.91344 35163 ft 443 kts 202°
2026-04-23 23:24 41.83045 -0.94300 35162 ft 443 kts 202°
2026-04-23 23:25 41.77323 -0.97222 35161 ft 442 kts 201°
2026-04-23 23:25 41.71574 -1.00147 35163 ft 441 kts 201°
2026-04-23 23:26 41.65885 -1.03225 35161 ft 440 kts 208°
2026-04-23 23:26 41.60783 -1.07708 35163 ft 439 kts 215°
2026-04-23 23:27 41.55782 -1.12313 35160 ft 438 kts 214°
2026-04-23 23:27 41.50758 -1.16911 35160 ft 438 kts 214°
2026-04-23 23:28 41.45715 -1.21527 35160 ft 438 kts 214°
2026-04-23 23:28 41.40688 -1.26109 35153 ft 438 kts 214°
2026-04-23 23:29 41.35647 -1.30695 35151 ft 438 kts 214°
2026-04-23 23:29 41.30624 -1.35269 35147 ft 437 kts 214°
2026-04-23 23:30 41.25627 -1.39815 35144 ft 437 kts 214°
2026-04-23 23:30 41.20599 -1.44376 35137 ft 437 kts 214°
2026-04-23 23:31 41.15581 -1.48925 35138 ft 437 kts 214°
2026-04-23 23:31 41.10553 -1.53472 35136 ft 436 kts 214°
2026-04-23 23:32 41.05536 -1.58006 35131 ft 436 kts 214°
2026-04-23 23:32 41.00547 -1.62504 35127 ft 436 kts 213°
2026-04-23 23:33 40.95528 -1.67010 35128 ft 436 kts 213°